time, beta470, beta532, beta650
yyyy/mm/dd HH:MM:SS.fff, counts, counts, counts
2023/06/22 05:00:02.249, 111, 127, 80
2023/06/22 05:00:03.385, 109, 129, 87
2023/06/22 05:00:04.505, 110, 130, 81
2023/06/22 05:00:05.641, 111, 127, 82
2023/06/22 05:00:06.776, 108, 135, 81
2023/06/22 05:00:07.896, 111, 128, 79
2023/06/22 05:00:09.032, 113, 153, 78
2023/06/22 05:00:10.168, 111, 151, 81
2023/06/22 05:00:11.288, 111, 131, 81
2023/06/22 05:00:12.424, 111, 154, 80
2023/06/22 05:00:13.544, 109, 131, 81
2023/06/22 05:00:14.680, 112, 133, 82
2023/06/22 05:00:15.816, 108, 128, 79
2023/06/22 05:00:16.936, 109, 132, 82
2023/06/22 05:00:18.072, 111, 137, 80
2023/06/22 05:00:19.207, 111, 140, 83
2023/06/22 05:00:20.328, 113, 126, 77
2023/06/22 05:00:21.464, 110, 128, 82
2023/06/22 05:00:22.583, 108, 127, 83
2023/06/22 05:00:23.719, 106, 137, 82
2023/06/22 05:00:24.856, 108, 133, 83
2023/06/22 05:00:25.976, 104, 129, 86
2023/06/22 05:00:27.111, 102, 129, 88
2023/06/22 05:00:28.231, 108, 129, 96
2023/06/22 05:00:29.367, 108, 132, 95
2023/06/22 05:00:30.503, 109, 140, 90
2023/06/22 05:00:31.623, 116, 135, 90
2023/06/22 05:00:32.759, 118, 140, 89
2023/06/22 05:00:33.895, 107, 135, 87
2023/06/22 05:00:35.015, 115, 130, 91
2023/06/22 05:00:36.151, 122, 129, 83
2023/06/22 05:00:37.271, 121, 133, 88
2023/06/22 05:00:38.407, 118, 146, 91
2023/06/22 05:00:39.543, 119, 185, 93
2023/06/22 05:00:40.663, 119, 162, 90
2023/06/22 05:00:41.798, 118, 152, 87
2023/06/22 05:00:42.918, 116, 150, 94
2023/06/22 05:00:44.054, 120, 154, 91
2023/06/22 05:00:45.190, 122, 156, 91
2023/06/22 05:00:46.310, 124, 154, 92
2023/06/22 05:00:47.446, 119, 148, 94
2023/06/22 05:00:48.582, 121, 147, 91
2023/06/22 05:00:49.702, 119, 142, 98
2023/06/22 05:00:50.838, 123, 143, 88
2023/06/22 05:00:51.958, 123, 140, 88
2023/06/22 05:00:53.094, 118, 146, 89
2023/06/22 05:00:54.230, 120, 151, 90
2023/06/22 05:00:55.350, 121, 165, 84
2023/06/22 05:00:56.486, 132, 147, 87
2023/06/22 05:00:57.621, 141, 141, 93
2023/06/22 05:00:58.741, 120, 144, 89
2023/06/22 05:00:59.877, 119, 142, 89
2023/06/22 05:01:00.997, 127, 141, 89
2023/06/22 05:01:02.133, 117, 143, 92
2023/06/22 05:01:03.269, 114, 144, 89
2023/06/22 05:01:04.389, 126, 139, 86
2023/06/22 05:01:05.525, 119, 140, 92
2023/06/22 05:01:06.661, 118, 152, 86
2023/06/22 05:01:07.781, 115, 138, 84
2023/06/22 05:01:08.916, 116, 144, 85
2023/06/22 05:01:10.037, 115, 146, 87
2023/06/22 05:01:11.173, 115, 137, 91
2023/06/22 05:01:12.309, 121, 145, 84
2023/06/22 05:01:13.428, 116, 140, 83
2023/06/22 05:01:14.564, 116, 135, 83
2023/06/22 05:01:15.700, 114, 140, 83
2023/06/22 05:01:16.820, 117, 135, 84
2023/06/22 05:01:17.956, 116, 149, 85
2023/06/22 05:01:19.076, 113, 137, 94
2023/06/22 05:01:20.212, 116, 135, 92
2023/06/22 05:01:21.348, 114, 139, 89
2023/06/22 05:01:22.468, 113, 140, 86
2023/06/22 05:01:23.604, 114, 135, 81
2023/06/22 05:01:24.740, 116, 140, 84
2023/06/22 05:01:25.860, 113, 141, 86
2023/06/22 05:01:26.996, 112, 138, 83
2023/06/22 05:01:28.116, 114, 138, 95
2023/06/22 05:01:29.251, 115, 136, 85
2023/06/22 05:01:30.388, 112, 135, 87
2023/06/22 05:01:31.507, 112, 137, 87
2023/06/22 05:01:32.643, 134, 131, 81
2023/06/22 05:01:33.763, 113, 133, 84
2023/06/22 05:01:34.899, 112, 134, 83
2023/06/22 05:01:36.035, 109, 133, 83
2023/06/22 05:01:37.155, 109, 134, 80
2023/06/22 05:01:38.291, 110, 129, 84
2023/06/22 05:01:39.411, 112, 132, 83
2023/06/22 05:01:40.547, 112, 134, 82
2023/06/22 05:01:41.683, 112, 130, 78
2023/06/22 05:01:42.803, 109, 130, 81
2023/06/22 05:01:43.939, 108, 130, 80
2023/06/22 05:01:45.075, 115, 128, 83
2023/06/22 05:01:46.195, 109, 133, 84
2023/06/22 05:01:47.330, 106, 129, 81
2023/06/22 05:01:48.450, 107, 125, 83
2023/06/22 05:01:49.586, 114, 129, 83
2023/06/22 05:01:50.722, 108, 126, 79
2023/06/22 05:01:51.842, 107, 130, 80
2023/06/22 05:01:52.978, 108, 127, 82
2023/06/22 05:01:54.114, 110, 128, 83
2023/06/22 05:01:55.234, 109, 129, 84
2023/06/22 05:01:56.370, 107, 126, 82
2023/06/22 05:01:57.490, 107, 144, 80
2023/06/22 05:01:58.626, 106, 124, 83
2023/06/22 05:01:59.762, 108, 126, 79
2023/06/22 05:02:00.882, 105, 122, 71
2023/06/22 05:02:02.017, 107, 125, 79
2023/06/22 05:02:03.154, 110, 120, 77
2023/06/22 05:02:04.273, 107, 118, 76
2023/06/22 05:02:05.409, 108, 127, 80
2023/06/22 05:02:06.529, 104, 118, 75
2023/06/22 05:02:07.665, 106, 121, 76
2023/06/22 05:02:08.801, 105, 121, 77
2023/06/22 05:02:09.921, 103, 126, 80
2023/06/22 05:02:11.057, 106, 120, 84
2023/06/22 05:02:12.193, 103, 121, 72
2023/06/22 05:02:13.313, 107, 120, 79
2023/06/22 05:02:14.449, 104, 125, 77
2023/06/22 05:02:15.569, 107, 124, 80
2023/06/22 05:02:16.705, 104, 122, 75
2023/06/22 05:02:17.840, 107, 116, 74
2023/06/22 05:02:18.960, 110, 124, 79
2023/06/22 05:02:20.096, 103, 121, 78
2023/06/22 05:02:21.232, 103, 122, 76
2023/06/22 05:02:22.352, 103, 119, 76
2023/06/22 05:02:23.488, 103, 119, 76
2023/06/22 05:02:24.609, 105, 127, 74
2023/06/22 05:02:25.744, 105, 123, 75
2023/06/22 05:02:26.880, 103, 118, 75
2023/06/22 05:02:27.000, 104, 118, 75
2023/06/22 05:02:29.136, 102, 118, 76
2023/06/22 05:02:30.256, 104, 118, 78
2023/06/22 05:02:31.392, 101, 119, 76
2023/06/22 05:02:32.528, 102, 118, 77
2023/06/22 05:02:33.647, 103, 119, 76
2023/06/22 05:02:34.783, 106, 119, 77
2023/06/22 05:02:35.903, 102, 120, 79
2023/06/22 05:02:37.039, 101, 120, 74
2023/06/22 05:02:38.175, 104, 121, 75
2023/06/22 05:02:39.294, 102, 115, 77
2023/06/22 05:02:40.431, 103, 119, 77
2023/06/22 05:02:41.567, 103, 117, 77
2023/06/22 05:02:42.687, 100, 116, 71
2023/06/22 05:02:43.822, 101, 116, 75
2023/06/22 05:02:44.943, 101, 116, 74
2023/06/22 05:02:46.079, 101, 115, 73
2023/06/22 05:02:47.215, 100, 112, 75
2023/06/22 05:02:48.335, 101, 115, 75
2023/06/22 05:02:49.471, 100, 114, 74
2023/06/22 05:02:50.607, 99, 115, 74
2023/06/22 05:02:51.726, 98, 113, 74
2023/06/22 05:02:52.862, 98, 113, 72
2023/06/22 05:02:53.982, 98, 113, 72
2023/06/22 05:02:55.118, 101, 119, 74
2023/06/22 05:02:56.238, 100, 111, 71
2023/06/22 05:02:57.374, 98, 112, 75
2023/06/22 05:02:58.510, 99, 113, 70
2023/06/22 05:02:59.630, 103, 119, 77
2023/06/22 05:03:00.766, 100, 112, 74
2023/06/22 05:03:01.902, 101, 109, 77
2023/06/22 05:03:03.022, 99, 144, 73
2023/06/22 05:03:04.158, 97, 152, 68
2023/06/22 05:03:05.278, 98, 117, 72
2023/06/22 05:03:06.414, 100, 127, 72
2023/06/22 05:03:07.549, 100, 114, 111
2023/06/22 05:03:08.669, 97, 113, 111
2023/06/22 05:03:09.805, 97, 116, 96
2023/06/22 05:03:10.925, 101, 113, 73
2023/06/22 05:03:12.061, 97, 113, 71
2023/06/22 05:03:13.197, 99, 112, 76
2023/06/22 05:03:14.317, 95, 113, 71
2023/06/22 05:03:15.453, 100, 107, 68
2023/06/22 05:03:16.573, 97, 111, 70
2023/06/22 05:03:17.708, 97, 106, 71
2023/06/22 05:03:18.829, 102, 109, 70
2023/06/22 05:03:19.965, 96, 106, 70
2023/06/22 05:03:21.101, 97, 107, 70
2023/06/22 05:03:22.221, 98, 113, 71
2023/06/22 05:03:23.357, 97, 117, 68
2023/06/22 05:03:24.476, 98, 116, 72
2023/06/22 05:03:25.612, 96, 107, 69
2023/06/22 05:03:26.732, 96, 110, 71
2023/06/22 05:03:27.868, 94, 105, 70
2023/06/22 05:03:29.004, 94, 110, 70
2023/06/22 05:03:30.124, 97, 108, 70
2023/06/22 05:03:31.260, 93, 107, 68
2023/06/22 05:03:32.380, 95, 106, 68
2023/06/22 05:03:33.516, 95, 105, 67
2023/06/22 05:03:34.636, 94, 106, 71
2023/06/22 05:03:35.772, 94, 107, 72
2023/06/22 05:03:36.892, 96, 108, 73
2023/06/22 05:03:38.028, 94, 106, 70
2023/06/22 05:03:39.163, 96, 104, 69
2023/06/22 05:03:40.284, 94, 107, 68
2023/06/22 05:03:41.419, 97, 105, 71
2023/06/22 05:03:42.539, 96, 102, 70
2023/06/22 05:03:43.675, 94, 106, 67
2023/06/22 05:03:44.795, 95, 106, 71
2023/06/22 05:03:45.931, 96, 106, 68
2023/06/22 05:03:47.067, 93, 103, 70
2023/06/22 05:03:48.187, 91, 107, 69
2023/06/22 05:03:49.323, 91, 101, 70
2023/06/22 05:03:50.443, 95, 103, 69
2023/06/22 05:03:51.579, 96, 103, 70
2023/06/22 05:03:52.715, 93, 102, 67
2023/06/22 05:03:53.835, 104, 102, 73
2023/06/22 05:03:54.970, 97, 104, 79
2023/06/22 05:03:56.090, 94, 104, 71
2023/06/22 05:03:57.226, 92, 103, 65
2023/06/22 05:03:58.346, 92, 102, 69
2023/06/22 05:03:59.482, 94, 101, 68
2023/06/22 05:04:00.618, 94, 100, 71
2023/06/22 05:04:01.738, 94, 104, 66
2023/06/22 05:04:02.873, 93, 112, 66
2023/06/22 05:04:03.994, 94, 113, 66
2023/06/22 05:04:05.130, 92, 102, 70
2023/06/22 05:04:06.250, 94, 102, 67
2023/06/22 05:04:07.385, 93, 113, 68
2023/06/22 05:04:08.521, 92, 126, 67
2023/06/22 05:04:09.642, 93, 113, 67
2023/06/22 05:04:10.778, 95, 104, 70
2023/06/22 05:04:11.897, 92, 102, 67
2023/06/22 05:04:13.033, 93, 100, 67
2023/06/22 05:04:14.153, 92, 108, 66
2023/06/22 05:04:15.289, 92, 99, 62
2023/06/22 05:04:16.425, 92, 100, 70
2023/06/22 05:04:17.545, 93, 101, 67
2023/06/22 05:04:18.681, 94, 100, 67
2023/06/22 05:04:19.801, 92, 99, 69
2023/06/22 05:04:20.937, 91, 103, 72
2023/06/22 05:04:22.057, 91, 99, 66
2023/06/22 05:04:23.193, 91, 98, 68
2023/06/22 05:04:24.313, 92, 99, 67
2023/06/22 05:04:25.449, 93, 100, 68
2023/06/22 05:04:26.568, 91, 104, 65
2023/06/22 05:04:27.705, 89, 101, 68
2023/06/22 05:04:28.841, 93, 100, 67
2023/06/22 05:04:29.960, 90, 100, 68
2023/06/22 05:04:31.096, 92, 99, 65
2023/06/22 05:04:32.216, 90, 97, 68
2023/06/22 05:04:33.352, 89, 100, 67
2023/06/22 05:04:34.472, 93, 100, 63
2023/06/22 05:04:35.608, 92, 104, 68
2023/06/22 05:04:36.728, 91, 101, 65
2023/06/22 05:04:37.864, 92, 101, 65
2023/06/22 05:04:38.984, 88, 98, 64
2023/06/22 05:04:40.120, 92, 102, 67
2023/06/22 05:04:41.256, 93, 97, 65
2023/06/22 05:04:42.376, 90, 97, 65
2023/06/22 05:04:43.512, 90, 97, 89
2023/06/22 05:04:44.631, 94, 113, 70
2023/06/22 05:04:45.767, 90, 102, 66
2023/06/22 05:04:46.887, 88, 101, 68
2023/06/22 05:04:48.023, 91, 95, 68
2023/06/22 05:04:49.143, 91, 97, 65
2023/06/22 05:04:50.279, 89, 102, 65
2023/06/22 05:04:51.399, 90, 98, 67
2023/06/22 05:04:52.535, 89, 96, 67
2023/06/22 05:04:53.671, 87, 94, 68
2023/06/22 05:04:54.790, 91, 96, 66
2023/06/22 05:04:55.927, 92, 96, 67
2023/06/22 05:04:57.046, 91, 94, 67
2023/06/22 05:04:58.183, 89, 94, 64
2023/06/22 05:04:59.303, 89, 94, 66
2023/06/22 05:05:00.439, 86, 103, 66
2023/06/22 05:05:01.558, 90, 95, 70
2023/06/22 05:05:02.694, 88, 96, 65
2023/06/22 05:05:03.814, 89, 96, 65
2023/06/22 05:05:04.950, 90, 96, 63
2023/06/22 05:05:06.070, 89, 98, 63
2023/06/22 05:05:07.206, 88, 94, 67
2023/06/22 05:05:08.326, 85, 95, 67
2023/06/22 05:05:09.462, 91, 96, 68
2023/06/22 05:05:10.582, 89, 97, 74
2023/06/22 05:05:11.718, 88, 97, 62
2023/06/22 05:05:12.838, 86, 97, 64
2023/06/22 05:05:13.974, 87, 93, 64
2023/06/22 05:05:15.094, 88, 96, 65
2023/06/22 05:05:16.230, 88, 94, 65
2023/06/22 05:05:17.366, 88, 95, 62
2023/06/22 05:05:18.485, 87, 95, 66
2023/06/22 05:05:19.621, 89, 96, 65
2023/06/22 05:05:20.741, 85, 95, 65
2023/06/22 05:05:21.877, 88, 95, 66
2023/06/22 05:05:22.998, 90, 95, 62
2023/06/22 05:05:24.133, 87, 94, 62
2023/06/22 05:05:25.253, 88, 94, 63
2023/06/22 05:05:26.389, 85, 95, 63
2023/06/22 05:05:27.509, 88, 95, 66
2023/06/22 05:05:28.645, 89, 96, 65
2023/06/22 05:05:29.765, 86, 97, 66
2023/06/22 05:05:30.901, 90, 96, 64
2023/06/22 05:05:32.020, 88, 95, 65
2023/06/22 05:05:33.156, 88, 98, 64
2023/06/22 05:05:34.276, 87, 95, 64
2023/06/22 05:05:35.412, 89, 93, 63
2023/06/22 05:05:36.532, 86, 94, 67
2023/06/22 05:05:37.668, 90, 94, 66
2023/06/22 05:05:38.788, 87, 93, 64
2023/06/22 05:05:39.924, 87, 93, 63
2023/06/22 05:05:41.043, 85, 94, 60
2023/06/22 05:05:42.180, 84, 96, 66
2023/06/22 05:05:43.300, 86, 102, 65
2023/06/22 05:05:44.436, 87, 96, 67
2023/06/22 05:05:45.556, 86, 94, 62
2023/06/22 05:05:46.692, 88, 94, 64
2023/06/22 05:05:47.828, 88, 97, 65
2023/06/22 05:05:48.947, 88, 92, 62
2023/06/22 05:05:50.083, 91, 94, 63
2023/06/22 05:05:51.203, 84, 94, 64
2023/06/22 05:05:52.339, 85, 91, 63
2023/06/22 05:05:53.459, 84, 93, 68
2023/06/22 05:05:54.595, 88, 97, 66
2023/06/22 05:05:55.715, 85, 91, 62
2023/06/22 05:05:56.851, 88, 101, 63
2023/06/22 05:05:57.971, 87, 95, 64
2023/06/22 05:05:59.107, 86, 93, 64
2023/06/22 05:06:00.227, 87, 91, 64
2023/06/22 05:06:01.363, 89, 90, 64
2023/06/22 05:06:02.483, 87, 91, 62
2023/06/22 05:06:03.619, 87, 92, 65
2023/06/22 05:06:04.739, 85, 91, 65
2023/06/22 05:06:05.875, 88, 94, 65
2023/06/22 05:06:06.994, 87, 93, 61
2023/06/22 05:06:08.130, 89, 92, 63
2023/06/22 05:06:09.266, 85, 91, 62
2023/06/22 05:06:10.386, 88, 92, 64
2023/06/22 05:06:11.522, 87, 90, 65
2023/06/22 05:06:12.642, 87, 90, 62
2023/06/22 05:06:13.778, 87, 90, 65
2023/06/22 05:06:14.898, 86, 92, 67
2023/06/22 05:06:16.034, 88, 90, 66
2023/06/22 05:06:17.154, 85, 90, 61
2023/06/22 05:06:18.289, 86, 87, 64
2023/06/22 05:06:19.410, 87, 91, 65
2023/06/22 05:06:20.546, 85, 92, 62
2023/06/22 05:06:21.665, 89, 96, 64
2023/06/22 05:06:22.801, 87, 95, 63
2023/06/22 05:06:23.921, 86, 90, 63
2023/06/22 05:06:25.057, 84, 92, 65
2023/06/22 05:06:26.177, 86, 89, 63
2023/06/22 05:06:27.313, 87, 93, 63
2023/06/22 05:06:28.433, 86, 90, 67
2023/06/22 05:06:29.569, 84, 92, 63
2023/06/22 05:06:30.689, 86, 89, 66
2023/06/22 05:06:31.825, 87, 91, 66
2023/06/22 05:06:32.945, 87, 90, 63
2023/06/22 05:06:34.081, 87, 90, 65
2023/06/22 05:06:35.201, 86, 90, 67
2023/06/22 05:06:36.337, 86, 91, 64
2023/06/22 05:06:37.457, 86, 92, 62
2023/06/22 05:06:38.592, 88, 91, 61
2023/06/22 05:06:39.712, 84, 92, 62
2023/06/22 05:06:40.848, 87, 92, 65
2023/06/22 05:06:41.984, 85, 92, 62
2023/06/22 05:06:43.104, 84, 92, 60
2023/06/22 05:06:44.240, 84, 90, 63
2023/06/22 05:06:45.360, 87, 92, 61
2023/06/22 05:06:46.496, 85, 91, 62
2023/06/22 05:06:47.616, 87, 90, 64
2023/06/22 05:06:48.752, 88, 89, 62
2023/06/22 05:06:49.872, 88, 91, 64
2023/06/22 05:06:51.008, 87, 89, 64
2023/06/22 05:06:52.128, 85, 89, 62
2023/06/22 05:06:53.263, 85, 90, 64
2023/06/22 05:06:54.384, 87, 91, 62
2023/06/22 05:06:55.520, 85, 89, 60
2023/06/22 05:06:56.639, 84, 91, 62
2023/06/22 05:06:57.775, 82, 91, 62
2023/06/22 05:06:58.895, 84, 90, 62
2023/06/22 05:07:00.031, 86, 91, 61
2023/06/22 05:07:01.151, 86, 90, 62
2023/06/22 05:07:02.287, 85, 89, 60
2023/06/22 05:07:03.407, 85, 92, 61
2023/06/22 05:07:04.543, 87, 91, 61
2023/06/22 05:07:05.663, 84, 86, 60
2023/06/22 05:07:06.799, 83, 90, 65
2023/06/22 05:07:07.935, 87, 96, 62
2023/06/22 05:07:09.054, 87, 96, 62
2023/06/22 05:07:10.190, 86, 87, 62
2023/06/22 05:07:11.310, 86, 93, 64
2023/06/22 05:07:12.446, 86, 95, 61
2023/06/22 05:07:13.566, 84, 92, 60
2023/06/22 05:07:14.702, 85, 91, 61
2023/06/22 05:07:15.822, 85, 89, 62
2023/06/22 05:07:16.957, 87, 89, 59
2023/06/22 05:07:18.078, 84, 90, 60
2023/06/22 05:07:19.214, 86, 92, 63
2023/06/22 05:07:20.334, 86, 94, 62
2023/06/22 05:07:21.470, 86, 92, 62
2023/06/22 05:07:22.590, 86, 90, 64
2023/06/22 05:07:23.726, 84, 87, 61
2023/06/22 05:07:24.846, 84, 92, 63
2023/06/22 05:07:25.981, 85, 88, 63
2023/06/22 05:07:27.101, 85, 86, 63
2023/06/22 05:07:28.237, 86, 89, 64
2023/06/22 05:07:29.357, 86, 89, 63
2023/06/22 05:07:30.493, 87, 90, 59
2023/06/22 05:07:31.613, 85, 91, 64
2023/06/22 05:07:32.749, 86, 92, 60
2023/06/22 05:07:33.869, 85, 89, 62
2023/06/22 05:07:35.005, 86, 87, 60
2023/06/22 05:07:36.125, 86, 90, 64
2023/06/22 05:07:37.261, 84, 89, 61
2023/06/22 05:07:38.381, 83, 85, 62
2023/06/22 05:07:39.517, 85, 89, 64
2023/06/22 05:07:40.637, 82, 88, 63
2023/06/22 05:07:41.773, 84, 89, 62
2023/06/22 05:07:42.908, 86, 87, 61
2023/06/22 05:07:44.028, 85, 90, 61
2023/06/22 05:07:45.164, 84, 89, 61
2023/06/22 05:07:46.284, 83, 91, 62
2023/06/22 05:07:47.420, 84, 86, 62
2023/06/22 05:07:48.540, 83, 88, 61
2023/06/22 05:07:49.676, 83, 88, 60
2023/06/22 05:07:50.796, 83, 90, 64
2023/06/22 05:07:51.932, 86, 89, 61
2023/06/22 05:07:53.052, 83, 90, 61
2023/06/22 05:07:54.188, 85, 88, 65
2023/06/22 05:07:55.308, 85, 91, 62
2023/06/22 05:07:56.443, 83, 88, 62
2023/06/22 05:07:57.564, 82, 87, 63
2023/06/22 05:07:58.699, 86, 88, 58
2023/06/22 05:07:59.819, 83, 91, 63
2023/06/22 05:08:00.955, 81, 89, 59
2023/06/22 05:08:02.075, 83, 88, 63
2023/06/22 05:08:03.211, 84, 88, 61
2023/06/22 05:08:04.331, 83, 88, 63
2023/06/22 05:08:05.467, 83, 88, 64
2023/06/22 05:08:06.587, 84, 87, 61
2023/06/22 05:08:07.723, 88, 88, 61
2023/06/22 05:08:08.859, 83, 86, 63
2023/06/22 05:08:09.979, 85, 86, 60
2023/06/22 05:08:11.115, 84, 87, 61
2023/06/22 05:08:12.235, 81, 89, 60
2023/06/22 05:08:13.371, 84, 86, 61
2023/06/22 05:08:14.491, 84, 88, 59
2023/06/22 05:08:15.626, 84, 88, 62
2023/06/22 05:08:16.747, 82, 87, 62
2023/06/22 05:08:17.882, 81, 87, 61
2023/06/22 05:08:19.002, 84, 87, 60
2023/06/22 05:08:20.138, 83, 88, 63
2023/06/22 05:08:21.258, 83, 87, 64
2023/06/22 05:08:22.394, 83, 88, 61
2023/06/22 05:08:23.514, 85, 86, 61
2023/06/22 05:08:24.650, 83, 88, 61
2023/06/22 05:08:25.770, 85, 86, 60
2023/06/22 05:08:26.906, 84, 86, 58
2023/06/22 05:08:28.026, 86, 87, 59
2023/06/22 05:08:29.161, 84, 87, 63
2023/06/22 05:08:30.281, 85, 90, 59
2023/06/22 05:08:31.417, 81, 85, 64
2023/06/22 05:08:32.537, 86, 88, 62
2023/06/22 05:08:33.673, 84, 89, 63
2023/06/22 05:08:34.793, 82, 86, 60
2023/06/22 05:08:35.929, 82, 85, 60
2023/06/22 05:08:37.049, 85, 87, 65
2023/06/22 05:08:38.185, 84, 88, 60
2023/06/22 05:08:39.305, 83, 88, 60
2023/06/22 05:08:40.441, 79, 89, 62
2023/06/22 05:08:41.561, 82, 84, 59
2023/06/22 05:08:42.697, 84, 88, 62
2023/06/22 05:08:43.833, 84, 87, 61
2023/06/22 05:08:44.953, 85, 89, 59
2023/06/22 05:08:46.088, 84, 87, 61
2023/06/22 05:08:47.208, 83, 88, 59
2023/06/22 05:08:48.344, 83, 87, 61
2023/06/22 05:08:49.464, 83, 88, 60
2023/06/22 05:08:50.600, 82, 90, 61
2023/06/22 05:08:51.720, 83, 92, 62
2023/06/22 05:08:52.856, 83, 91, 64
2023/06/22 05:08:53.976, 85, 88, 63
2023/06/22 05:08:55.112, 88, 88, 59
2023/06/22 05:08:56.232, 83, 89, 62
2023/06/22 05:08:57.368, 80, 88, 61
2023/06/22 05:08:58.488, 83, 86, 60
2023/06/22 05:08:59.624, 83, 91, 60
2023/06/22 05:09:00.744, 83, 86, 62
2023/06/22 05:09:01.880, 82, 86, 64
2023/06/22 05:09:02.000, 83, 88, 65
2023/06/22 05:09:04.135, 84, 88, 63
2023/06/22 05:09:05.255, 84, 84, 60
2023/06/22 05:09:06.392, 84, 90, 62
2023/06/22 05:09:07.511, 82, 86, 63
2023/06/22 05:09:08.647, 84, 85, 60
2023/06/22 05:09:09.783, 82, 86, 63
2023/06/22 05:09:10.903, 83, 86, 61
2023/06/22 05:09:12.039, 83, 89, 62
2023/06/22 05:09:13.159, 84, 86, 60
2023/06/22 05:09:14.295, 84, 86, 61
2023/06/22 05:09:15.415, 86, 84, 60
2023/06/22 05:09:16.551, 83, 89, 64
2023/06/22 05:09:17.670, 82, 87, 61
2023/06/22 05:09:18.807, 83, 85, 63
2023/06/22 05:09:19.926, 84, 87, 62
2023/06/22 05:09:21.062, 82, 85, 61
2023/06/22 05:09:22.182, 81, 87, 62
2023/06/22 05:09:23.318, 83, 88, 60
2023/06/22 05:09:24.438, 81, 87, 64
2023/06/22 05:09:25.574, 83, 86, 59
2023/06/22 05:09:26.694, 83, 85, 61
2023/06/22 05:09:27.830, 83, 87, 59
2023/06/22 05:09:28.950, 82, 89, 61
2023/06/22 05:09:30.086, 84, 86, 62
2023/06/22 05:09:31.206, 84, 85, 60
2023/06/22 05:09:32.342, 81, 87, 62
2023/06/22 05:09:33.462, 84, 84, 60
2023/06/22 05:09:34.598, 83, 89, 62
2023/06/22 05:09:35.717, 83, 87, 63
2023/06/22 05:09:36.853, 81, 87, 60
2023/06/22 05:09:37.973, 84, 83, 62
2023/06/22 05:09:39.109, 81, 89, 63
2023/06/22 05:09:40.229, 82, 85, 58
2023/06/22 05:09:41.365, 82, 88, 59
2023/06/22 05:09:42.485, 85, 88, 63
2023/06/22 05:09:43.621, 85, 87, 65
2023/06/22 05:09:44.757, 82, 87, 61
2023/06/22 05:09:45.877, 83, 84, 62
2023/06/22 05:09:47.013, 82, 84, 58
2023/06/22 05:09:48.133, 83, 85, 60
2023/06/22 05:09:49.269, 82, 86, 61
2023/06/22 05:09:50.389, 80, 88, 63
2023/06/22 05:09:51.524, 82, 85, 62
2023/06/22 05:09:52.644, 85, 83, 61
2023/06/22 05:09:53.780, 85, 86, 63
2023/06/22 05:09:54.900, 81, 87, 60
2023/06/22 05:09:56.035, 81, 87, 59
2023/06/22 05:09:57.156, 82, 87, 58
2023/06/22 05:09:58.292, 84, 88, 61
2023/06/22 05:09:59.412, 83, 89, 61
2023/06/22 05:10:00.548, 83, 87, 62
2023/06/22 05:10:01.668, 82, 88, 63
2023/06/22 05:10:02.804, 81, 87, 62
2023/06/22 05:10:03.924, 83, 87, 63
2023/06/22 05:10:05.060, 83, 82, 60
2023/06/22 05:10:06.180, 83, 85, 57
2023/06/22 05:10:07.315, 82, 89, 61
2023/06/22 05:10:08.436, 84, 86, 62
2023/06/22 05:10:09.571, 81, 86, 70
2023/06/22 05:10:10.707, 83, 89, 68
2023/06/22 05:10:11.827, 82, 89, 70
2023/06/22 05:10:12.963, 81, 86, 64
2023/06/22 05:10:14.083, 83, 89, 63
2023/06/22 05:10:15.219, 83, 87, 61
2023/06/22 05:10:16.339, 84, 88, 65
2023/06/22 05:10:17.475, 85, 89, 63
2023/06/22 05:10:18.595, 86, 89, 66
2023/06/22 05:10:19.731, 86, 90, 64
2023/06/22 05:10:20.851, 85, 89, 65
2023/06/22 05:10:21.987, 89, 90, 67
2023/06/22 05:10:23.106, 88, 95, 66
2023/06/22 05:10:24.242, 91, 93, 65
2023/06/22 05:10:25.362, 89, 95, 70
2023/06/22 05:10:26.498, 87, 93, 76
2023/06/22 05:10:27.618, 88, 98, 71
2023/06/22 05:10:28.754, 88, 97, 68
2023/06/22 05:10:29.874, 90, 98, 68
2023/06/22 05:10:31.010, 91, 100, 70
2023/06/22 05:10:32.130, 89, 101, 70
2023/06/22 05:10:33.266, 90, 100, 70
2023/06/22 05:10:34.402, 91, 104, 71
2023/06/22 05:10:35.522, 92, 101, 66
2023/06/22 05:10:36.658, 94, 101, 68
2023/06/22 05:10:37.778, 90, 108, 71
2023/06/22 05:10:38.913, 91, 104, 67
2023/06/22 05:10:40.033, 93, 107, 69
2023/06/22 05:10:41.169, 93, 105, 69
2023/06/22 05:10:42.305, 95, 106, 69
2023/06/22 05:10:43.425, 96, 110, 68
2023/06/22 05:10:44.561, 93, 138, 69
2023/06/22 05:10:45.681, 98, 109, 73
2023/06/22 05:10:46.817, 97, 106, 71
2023/06/22 05:10:47.937, 94, 109, 68
2023/06/22 05:10:49.073, 98, 113, 72
2023/06/22 05:10:50.209, 96, 110, 71
2023/06/22 05:10:51.329, 94, 108, 73
2023/06/22 05:10:52.465, 97, 110, 73
2023/06/22 05:10:53.585, 97, 123, 76
2023/06/22 05:10:54.721, 97, 111, 72
2023/06/22 05:10:55.841, 102, 111, 72
2023/06/22 05:10:56.976, 97, 109, 72
2023/06/22 05:10:58.112, 100, 111, 76
2023/06/22 05:10:59.232, 99, 123, 78
2023/06/22 05:11:00.368, 102, 109, 75
2023/06/22 05:11:01.488, 98, 112, 81
2023/06/22 05:11:02.624, 98, 111, 77
2023/06/22 05:11:03.760, 97, 132, 77
2023/06/22 05:11:04.880, 101, 113, 73
2023/06/22 05:11:06.015, 97, 120, 72
2023/06/22 05:11:07.136, 97, 108, 75
2023/06/22 05:11:08.272, 99, 110, 72
2023/06/22 05:11:09.408, 99, 116, 72
2023/06/22 05:11:10.528, 103, 113, 73
2023/06/22 05:11:11.664, 100, 113, 73
2023/06/22 05:11:12.784, 107, 119, 76
2023/06/22 05:11:13.919, 105, 117, 77
2023/06/22 05:11:15.055, 101, 120, 75
2023/06/22 05:11:16.175, 105, 122, 74
2023/06/22 05:11:17.311, 103, 117, 75
2023/06/22 05:11:18.447, 105, 117, 76
2023/06/22 05:11:19.567, 106, 119, 75
2023/06/22 05:11:20.703, 104, 120, 76
2023/06/22 05:11:21.823, 101, 118, 76
2023/06/22 05:11:22.959, 103, 117, 77
2023/06/22 05:11:24.095, 116, 117, 78
2023/06/22 05:11:25.215, 103, 118, 78
2023/06/22 05:11:26.351, 104, 120, 75
2023/06/22 05:11:27.471, 103, 125, 80
2023/06/22 05:11:28.606, 110, 120, 76
2023/06/22 05:11:29.742, 104, 116, 75
2023/06/22 05:11:30.863, 103, 118, 74
2023/06/22 05:11:31.998, 103, 118, 77
2023/06/22 05:11:33.134, 103, 117, 76
2023/06/22 05:11:34.253, 100, 117, 80
2023/06/22 05:11:35.390, 102, 122, 75
2023/06/22 05:11:36.510, 114, 125, 78
2023/06/22 05:11:37.646, 105, 122, 77
2023/06/22 05:11:38.781, 107, 120, 78
2023/06/22 05:11:39.902, 103, 119, 78
2023/06/22 05:11:41.038, 103, 117, 78
2023/06/22 05:11:42.158, 106, 119, 77
2023/06/22 05:11:43.294, 104, 121, 78
2023/06/22 05:11:44.430, 103, 119, 78
2023/06/22 05:11:45.549, 108, 120, 86
2023/06/22 05:11:46.685, 120, 118, 77
2023/06/22 05:11:47.821, 107, 121, 78
2023/06/22 05:11:48.941, 106, 122, 79
2023/06/22 05:11:50.077, 105, 123, 79
2023/06/22 05:11:51.213, 106, 127, 112
2023/06/22 05:11:52.333, 107, 122, 79
2023/06/22 05:11:53.469, 107, 125, 75
2023/06/22 05:11:54.589, 108, 130, 79